Header for Extended Forecast Station List Page

Search by: ID | Name | Date | Parm | Value | Avg | % Avg
Sort by: ID | Name | Date | Parm | Value | Avg | % Avg

Enter search or view all records.

Click on id for station plot
#IDNameDateParmValueAvg% Avg
0LYDM8KOOTENAI-LIBBY DAM11-24-2014INFLOW (KAF)77278698
1LEOI1KOOTENAI-AT LEONIA11-24-2014DISCHARGE (KAF)23331316177
2BFEI1KOOTENAI-AT BONNERS FERRY11-24-2014STAGE (FT)MMM
3FCFM8NF FLATHEAD-NEAR COLUMBIA FALLS11-24-2014DISCHARGE (KAF)188170111
4WGCM8MF FLATHEAD-NEAR WEST GLACIER11-24-2014DISCHARGE (KAF)10615071
5HHWM8SF FLATHEAD-HUNGRY HORSE DAM11-24-2014INFLOW (KAF)22823597
6CFMM8FLATHEAD-AT COLUMBIA FALLS11-24-2014DISCHARGE (KAF)902114079
7DLGM8CLARK FORK-AT DEER LODGE11-24-2014DISCHARGE (KAF)596197
8DRMM8CLARK FORK-NR DRUMMOND11-24-2014DISCHARGE (KAF)139MM
9RCCM8ROCK CREEK-NEAR CLINTON11-24-2014DISCHARGE (KAF)5645125
10BONM8BLACKFOOT-NEAR BONNER11-24-2014DISCHARGE (KAF)12313293
11ABOM8CLARK FORK-ABOVE MISSOULA11-24-2014DISCHARGE (KAF)33233599
12BITM8BITTERROOT-NEAR MISSOULA11-24-2014DISCHARGE (KAF)19322087
13BELM8CLARK FORK-BELOW MISSOULA11-24-2014DISCHARGE (KAF)52456593
14STRM8ST. REGIS-NEAR ST. REGIS11-24-2014DISCHARGE (KAF)264756
15SRGM8CLARK FORK-AT ST REGIS11-24-2014DISCHARGE (KAF)67775690
16KERM8FLATHEAD-KERR DAM11-24-2014INFLOW (KAF)1090149273
17NOXM8CLARK FORK-NOXON RAPIDS DAM11-24-2014INFLOW (KAF)2744366875
18CABI1CLARK FORK-CABINET GORGE DAM11-24-2014INFLOW (KAF)3025384779
19PRTI1PRIEST-NEAR PRIEST RIVER11-24-2014DISCHARGE (KAF)17820985
20ALFW1PEND OREILLE-ALBENI FALLS DAM11-24-2014INFLOW (KAF)3165451270
21HOPI1PEND OREILLE-PEND OREILLE LAKE NR HOPE11-24-2014LAKE ELEVATION (FT)MMM
22COEI1COEUR D ALENE-COEUR D ALENE LAKE11-24-2014INFLOW (KAF)581102457
23SPOW1SPOKANE-AT SPOKANE11-24-2014DISCHARGE (KAF)583MM
24LLKW1SPOKANE-AT LONGLAKE11-24-2014INFLOW (KAF)858154156
25SATI1ST MARIES-NEAR SANTA11-24-2014DISCHARGE (KAF)225640
26SJMI1ST JOE-AT ST MARIES11-24-2014STAGE (FT)MMM
27CIBW1COLUMBIA-AT INTL BOUNDARY11-24-2014DISCHARGE (KAF)22044MM
28LAUW1KETTLE-AT LAURIER11-24-2014DISCHARGE (KAF)12012398
29GCDW1COLUMBIA-GRAND COULEE DAM11-24-2014INFLOW (KAF)2312517008136
30CHJW1COLUMBIA-CHIEF JOSEPH DAM11-24-2014INFLOW (KAF)2503022601111
31TONW1OKANOGAN-NEAR TONASKET11-24-2014DISCHARGE (KAF)27728797
32PATW1METHOW-NEAR PATEROS11-24-2014DISCHARGE (KAF)919695
33WELW1COLUMBIA-WELLS DAM11-24-2014INFLOW (KAF)2539923022110
34CHDW1CHELAN-LAKE CHELAN DAM11-24-2014INFLOW (KAF)14716589
35RRHW1COLUMBIA-ROCKY REACH DAM11-24-2014INFLOW (KAF)2567823570109
36ARDW1ENTIAT-NEAR ARDENVOIR11-24-2014DISCHARGE (KAF)2622118
37PESW1WENATCHEE-AT PESHASTIN11-24-2014DISCHARGE (KAF)20831067
38WANW1COLUMBIA-WANAPUM DAM11-24-2014INFLOW (KAF)2587920642125
39PRWW1COLUMBIA-PRIEST RAPIDS DAM11-24-2014INFLOW (KAF)2587620921124
40KEDW1YAKIMA-KEECHELUS LAKE11-24-2014INFLOW (KAF)385076
41KADW1KACHESS-KACHESS DAM11-24-2014INFLOW (KAF)404983
42EASW1YAKIMA-AT EASTON11-24-2014DISCHARGE (KAF)8279104
43CLUW1CLE ELUM-CLE ELUM LAKE11-24-2014INFLOW (KAF)9710592
44TNAW1TEANAWAY-BELOW FORKS11-24-2014DISCHARGE (KAF)315656
45UMTW1YAKIMA-AT UMTANUM11-24-2014DISCHARGE (KAF)25330782
46BUDW1BUMPING-BUMPING LAKE DAM11-24-2014INFLOW (KAF)223859
47CLFW1NACHES-NEAR CLIFFDEL11-24-2014DISCHARGE (KAF)8712272
48RILW1TIETON-RIMROCK LAKE NEAR RIMROCK11-24-2014INFLOW (KAF)637287
49NACW1NACHES-NEAR NACHES11-24-2014DISCHARGE (KAF)9410887
50PARW1YAKIMA-NEAR PARKER11-24-2014DISCHARGE (KAF)39856870
51KIOW1YAKIMA-AT KIONA11-24-2014DISCHARGE (KAF)56082068
52IPDI1HENRYS FORK-ISLAND PARK DAM11-24-2014INFLOW (KAF)7711169
53CHEI1FALLS-NEAR CHESTER11-24-2014DISCHARGE (KAF)123110112
54ANTI1HENRYS FORK-AT ST. ANTHONY11-24-2014DISCHARGE (KAF)26934278
55TEAI1TETON-NEAR ST. ANTHONY11-24-2014DISCHARGE (KAF)899593
56REXI1HENRYS FORK-AT REXBURG11-24-2014DISCHARGE (KAF)36242785
57JLKW4SNAKE-JACKSON LAKE AT DAM11-24-2014INFLOW (KAF)10011686
58JKSW4SNAKE-NEAR JACKSON11-24-2014DISCHARGE (KAF)318298107
59ALPW4SNAKE-NEAR ALPINE11-24-2014DISCHARGE (KAF)398368108
60PLDI1SF SNAKE-PALISADES DAM11-24-2014INFLOW (KAF)595592100
61HEII1SNAKE-NEAR HEISE11-24-2014DISCHARGE (KAF)33955561
62RIDI1WILLOW CREEK-RIRIE DAM11-24-2014INFLOW (KAF)9993
63SIFI1SNAKE-AB EAGLE ROCK NR IDAHO FALLS11-24-2014DISCHARGE (KAF)53280166
64SHYI1SNAKE-NEAR SHELLEY11-24-2014DISCHARGE (KAF)51181563
65SNAI1SNAKE-AT BLACKFOOT11-24-2014DISCHARGE (KAF)44074859
66BFTI1SNAKE-NEAR BLACKFOOT11-24-2014DISCHARGE (KAF)44679156
67PIHI1PORTNEUF-AT POCATELLO11-24-2014DISCHARGE (KAF)477166
68AFRI1SNAKE-AMERICAN FALLS RESERVOIR11-24-2014INFLOW (KAF)1127150075
69MILI1SNAKE-AT MILNER11-24-2014DISCHARGE (KAF)M685M
70HOTI1BRUNEAU-NEAR HOT SPRINGS11-24-2014DISCHARGE (KAF)173550
71SWAI1SNAKE-BELOW SWAN FALLS11-24-2014DISCHARGE (KAF)1671264063
72HWRI1BIG LOST-AT HOWELL RANCH NEAR CHILLY11-24-2014DISCHARGE (KAF)141977
73MACI1BIG LOST-MACKAY RESERVOIR NEAR MACKAY11-24-2014INFLOW (KAF)264643
74HALI1BIG WOOD-AT HAILEY11-24-2014DISCHARGE (KAF)313785
75MAGI1BIG WOOD-MAGIC DAM11-24-2014INFLOW (KAF)273382
76LWRI1LITTLE WOOD-LITTLE WOOD DAM11-24-2014INFLOW (KAF)101664
77OWYO3OWYHEE-BELOW OWYHEE DAM11-24-2014INFLOW (KAF)146132111
78ARAI1SF BOISE-ANDERSON RANCH DAM11-24-2014INFLOW (KAF)718484
79LUCI1BOISE-LUCKY PEAK DAM11-24-2014INFLOW (KAF)206MM
80BIGI1BOISE-AT GLENWOOD BRIDGE11-24-2014DISCHARGE (KAF)12543294
81PARI1BOISE-NEAR PARMA11-24-2014DISCHARGE (KAF)287221130
82WRMO3MALHEUR-WARM SPRINGS DAM11-24-2014INFLOW (KAF)334475
83BERO3MALHEUR-AGENCY VALLEY DAM11-24-2014INFLOW (KAF)162664
84BULO3BULLY CREEK-BULLY CREEK DAM11-24-2014INFLOW (KAF)126186
85VALO3MALHEUR-NEAR VALE11-24-2014DISCHARGE (KAF)154038
86CSDI1NF PAYETTE-CASCADE DAM11-24-2014INFLOW (KAF)6410163
87DEDI1DEADWOOD-NEAR LOWMAN11-24-2014INFLOW (KAF)151980
88EMMI1PAYETTE-NEAR EMMETT11-24-2014DISCHARGE (KAF)28840970
89WSRI1WEISER-NEAR WEISER11-24-2014DISCHARGE (KAF)215159135
90WEII1SNAKE-AT WEISER11-24-2014DISCHARGE (KAF)2704395468
91BRNI1SNAKE-BROWNLEE DAM11-24-2014INFLOW (KAF)2938411671
92WHBI1SALMON-AT WHITEBIRD11-24-2014DISCHARGE (KAF)964106491
93TRYO3GRANDE RONDE-TROY11-24-2014DISCHARGE (KAF)23943455
94ANAW1SNAKE-NEAR ANATONE11-24-2014DISCHARGE (KAF)4579629273
95ORFI1CLEARWATER-AT OROFINO11-24-2014DISCHARGE (KAF)52288059
96DWRI1NF CLEARWATER-DWORSHAK DAM11-24-2014INFLOW (KAF)41767961
97SPDI1CLEARWATER-AT SPALDING11-24-2014DISCHARGE (KAF)1005201650
98LGDW1SNAKE-LOWER GRANITE DAM11-24-2014INFLOW (KAF)5587847266
99LGSW1SNAKE-LITTLE GOOSE DAM11-24-2014INFLOW (KAF)5581854865
100LMNW1SNAKE-LOWER MONUMENTAL DAM11-24-2014INFLOW (KAF)5761873366
101IHDW1SNAKE-ICE HARBOR DAM11-24-2014INFLOW (KAF)5761867266
102TCHW1WALLA WALLA-NEAR TOUCHET11-24-2014DISCHARGE (KAF)13817877
103MCDW1COLUMBIA-MCNARY DAM11-24-2014INFLOW (KAF)3230231874101
104GIBO3UMATILLA-NEAR GIBBON11-24-2014DISCHARGE (KAF)374877
105PDTO3UMATILLA-AT PENDLETON11-24-2014DISCHARGE (KAF)11612494
106MYKO3MCKAY CREEK-NEAR PILOT ROCK11-24-2014DISCHARGE (KAF)3729130
107UMAO3UMATILLA-NEAR UMATILLA11-24-2014DISCHARGE (KAF)136126108
108MONO3NF JOHN DAY-AT MONUMENT11-24-2014DISCHARGE (KAF)14620472
109SERO3JOHN DAY-AT SERVICE CK11-24-2014DISCHARGE (KAF)25034173
110JDAO3COLUMBIA-JOHN DAY DAM11-24-2014INFLOW (KAF)3379433384101
111MODO3DESCHUTES-AT MOODY NR BIGGS11-24-2014DISCHARGE (KAF)1463151696
112TDAO3COLUMBIA-THE DALLES DAM11-24-2014INFLOW (KAF)344703778491
113PITW1KLICKITAT-NEAR PITT11-24-2014DISCHARGE (KAF)34236594
114HODO3HOOD-NEAR TUCKER BRIDGE11-24-2014DISCHARGE (KAF)328272121
115UNDW1WHITE SALMON-NEAR UNDERWOOD11-24-2014DISCHARGE (KAF)28729298
116BONO3COLUMBIA-BONNEVILLE DAM11-24-2014INFLOW (KAF)35414MM